• In Belgien
  • Länderverzeichnis
  • Für 7 Tage
  • Wassertemperatur
  • Satellitenkarten
  • Wetterkarte
  • Widgets
  • user-avatar
    Anmelden

    Stündliche Wetter Vanadzor

    Heute, 19 Oktober, Freitag

    Zeit Temperatur Niederschläge Wind Luftdruck Luftfeuchtigkeit
    00:00 +9°C° 0 mm 1 m/S 638 mmHg 83%
    01:00 +9°C° 0 mm 1 m/S 638 mmHg 84%
    02:00 +9°C° 0 mm 1 m/S 638 mmHg 86%
    03:00 +8°C° 0 mm 1 m/S 638 mmHg 88%
    04:00 +8°C° 0 mm 1 m/S 638 mmHg 88%
    05:00 +8°C° 0 mm 1 m/S 638 mmHg 88%
    06:00 +8°C° 0 mm 1 m/S 638 mmHg 88%
    07:00 +10°C° 0 mm 1 m/S 638 mmHg 78%
    08:00 +12°C° 0 mm 1 m/S 639 mmHg 69%
    09:00 +13°C° 0 mm 1 m/S 640 mmHg 60%
    10:00 +15°C° 0 mm 1 m/S 640 mmHg 54%
    11:00 +16°C° 0 mm 1 m/S 640 mmHg 48%
    12:00 +17°C° 0 mm 2 m/S 640 mmHg 42%
    13:00 +17°C° 0 mm 2 m/S 640 mmHg 42%
    14:00 +18°C° 0 mm 2 m/S 639 mmHg 42%
    15:00 +18°C° 0 mm 2 m/S 639 mmHg 41%
    16:00 +16°C° 0 mm 1 m/S 639 mmHg 50%
    17:00 +14°C° 0 mm 1 m/S 638 mmHg 59%
    18:00 +12°C° 0 mm 1 m/S 637 mmHg 67%
    19:00 +10°C° 0 mm 0 m/S 637 mmHg 70%
    20:00 +10°C° 0 mm 0 m/S 638 mmHg 72%
    21:00 +9°C° 0 mm 0 m/S 638 mmHg 75%
    22:00 +9°C° 0 mm 0 m/S 638 mmHg 75%
    23:00 +9°C° 0 mm 0 m/S 638 mmHg 75%

    Morgen, 20 Oktober, Samstag

    Zeit Temperatur Niederschläge Wind Luftdruck Luftfeuchtigkeit
    00:00 +9°C° 0 mm 0 m/S 638 mmHg 75%
    01:00 +9°C° 0 mm 0 m/S 637 mmHg 74%
    02:00 +8°C° 0 mm 0 m/S 637 mmHg 72%
    03:00 +8°C° 0 mm 0 m/S 637 mmHg 70%
    04:00 +9°C° 0.1 mm 1 m/S 637 mmHg 68%
    05:00 +9°C° 0.1 mm 1 m/S 637 mmHg 66%
    06:00 +9°C° 0.1 mm 1 m/S 637 mmHg 64%
    07:00 +11°C° 0 mm 1 m/S 637 mmHg 60%
    08:00 +13°C° 0 mm 1 m/S 638 mmHg 55%
    09:00 +15°C° 0 mm 2 m/S 639 mmHg 51%
    10:00 +16°C° 0 mm 2 m/S 639 mmHg 48%
    11:00 +17°C° 0 mm 2 m/S 639 mmHg 45%
    12:00 +18°C° 0 mm 2 m/S 639 mmHg 43%
    13:00 +18°C° 0.1 mm 2 m/S 638 mmHg 43%
    14:00 +18°C° 0.1 mm 2 m/S 638 mmHg 42%
    15:00 +18°C° 0.1 mm 2 m/S 638 mmHg 42%
    16:00 +18°C° 0.1 mm 1 m/S 637 mmHg 49%
    17:00 +15°C° 0.1 mm 1 m/S 637 mmHg 56%
    18:00 +12°C° 0.1 mm 0 m/S 636 mmHg 63%
    19:00 +13°C° 0.1 mm 1 m/S 636 mmHg 63%
    20:00 +12°C° 0.1 mm 1 m/S 636 mmHg 63%
    21:00 +12°C° 0.1 mm 1 m/S 636 mmHg 63%
    22:00 +12°C° 0.1 mm 1 m/S 636 mmHg 63%
    23:00 +11°C° 0.1 mm 1 m/S 636 mmHg 63%

    übermorgen, 21 Oktober, Sonntag

    Zeit Temperatur Niederschläge Wind Luftdruck Luftfeuchtigkeit
    00:00 +11°C° 0.1 mm 1 m/S 636 mmHg 63%
    01:00 +11°C° 0.1 mm 1 m/S 636 mmHg 64%
    02:00 +10°C° 0.1 mm 1 m/S 635 mmHg 64%
    03:00 +10°C° 0.1 mm 1 m/S 635 mmHg 64%
    04:00 +10°C° 0.1 mm 1 m/S 635 mmHg 65%
    05:00 +10°C° 0.1 mm 1 m/S 635 mmHg 65%
    06:00 +10°C° 0.1 mm 1 m/S 635 mmHg 65%
    07:00 +11°C° 0.1 mm 1 m/S 636 mmHg 61%
    08:00 +13°C° 0.1 mm 1 m/S 636 mmHg 57%
    09:00 +15°C° 0.1 mm 1 m/S 637 mmHg 53%
    10:00 +16°C° 0 mm 2 m/S 637 mmHg 50%
    11:00 +17°C° 0 mm 2 m/S 637 mmHg 47%
    12:00 +18°C° 0 mm 3 m/S 637 mmHg 45%
    13:00 +18°C° 0.1 mm 2 m/S 636 mmHg 46%
    14:00 +17°C° 0.1 mm 2 m/S 636 mmHg 46%
    15:00 +17°C° 0.1 mm 2 m/S 636 mmHg 47%
    16:00 +16°C° 0.2 mm 2 m/S 636 mmHg 52%
    17:00 +15°C° 0.2 mm 1 m/S 635 mmHg 57%
    18:00 +13°C° 0.2 mm 1 m/S 635 mmHg 62%
    19:00 +13°C° 0.1 mm 1 m/S 635 mmHg 64%
    20:00 +12°C° 0.1 mm 1 m/S 635 mmHg 65%
    21:00 +12°C° 0.1 mm 1 m/S 635 mmHg 66%
    22:00 +11°C° 0 mm 1 m/S 635 mmHg 67%
    23:00 +11°C° 0 mm 1 m/S 635 mmHg 67%

    22 Oktober, Montag

    Zeit Temperatur Niederschläge Wind Luftdruck Luftfeuchtigkeit
    00:00 +11°C° 0 mm 1 m/S 634 mmHg 68%
    01:00 +11°C° 0 mm 1 m/S 634 mmHg 69%
    02:00 +10°C° 0 mm 1 m/S 634 mmHg 70%
    03:00 +10°C° 0 mm 1 m/S 634 mmHg 71%
    04:00 +10°C° 0.1 mm 1 m/S 634 mmHg 72%
    05:00 +9°C° 0.1 mm 2 m/S 634 mmHg 73%
    06:00 +9°C° 0.1 mm 2 m/S 634 mmHg 74%
    07:00 +10°C° 0 mm 2 m/S 635 mmHg 69%
    08:00 +13°C° 0 mm 2 m/S 635 mmHg 64%
    09:00 +14°C° 0 mm 2 m/S 636 mmHg 58%
    10:00 +15°C° 0 mm 2 m/S 636 mmHg 55%
    11:00 +16°C° 0 mm 3 m/S 636 mmHg 52%
    12:00 +17°C° 0 mm 3 m/S 637 mmHg 49%
    13:00 +17°C° 0 mm 3 m/S 636 mmHg 48%
    14:00 +18°C° 0 mm 3 m/S 636 mmHg 46%
    15:00 +18°C° 0 mm 3 m/S 636 mmHg 45%
    16:00 +16°C° 0 mm 3 m/S 636 mmHg 51%
    17:00 +14°C° 0 mm 2 m/S 635 mmHg 57%
    18:00 +13°C° 0 mm 1 m/S 635 mmHg 62%
    19:00 +12°C° 0 mm 1 m/S 635 mmHg 64%
    20:00 +12°C° 0 mm 2 m/S 635 mmHg 65%
    21:00 +12°C° 0 mm 2 m/S 635 mmHg 67%
    22:00 +10°C° 0 mm 2 m/S 635 mmHg 68%
    23:00 +10°C° 0 mm 2 m/S 635 mmHg 69%

    23 Oktober, Dienstag

    Zeit Temperatur Niederschläge Wind Luftdruck Luftfeuchtigkeit
    00:00 +9°C° 0 mm 2 m/S 635 mmHg 70%
    01:00 +9°C° 0 mm 2 m/S 635 mmHg 70%
    02:00 +9°C° 0 mm 2 m/S 635 mmHg 71%
    03:00 +9°C° 0 mm 2 m/S 635 mmHg 72%
    04:00 +8°C° 0 mm 2 m/S 635 mmHg 72%
    05:00 +8°C° 0 mm 2 m/S 635 mmHg 72%
    06:00 +8°C° 0 mm 2 m/S 635 mmHg 72%
    07:00 +10°C° 0 mm 2 m/S 636 mmHg 66%
    08:00 +12°C° 0 mm 3 m/S 637 mmHg 61%
    09:00 +13°C° 0 mm 3 m/S 637 mmHg 55%
    10:00 +16°C° 0 mm 3 m/S 637 mmHg 51%
    11:00 +17°C° 0 mm 3 m/S 637 mmHg 48%
    12:00 +18°C° 0 mm 4 m/S 638 mmHg 44%
    13:00 +17°C° 0.3 mm 3 m/S 637 mmHg 47%
    14:00 +17°C° 0.3 mm 3 m/S 637 mmHg 50%
    15:00 +16°C° 0.3 mm 3 m/S 636 mmHg 53%
    16:00 +14°C° 0.1 mm 3 m/S 636 mmHg 58%
    17:00 +14°C° 0.1 mm 2 m/S 636 mmHg 62%
    18:00 +12°C° 0.1 mm 2 m/S 636 mmHg 66%
    19:00 +12°C° 0.1 mm 2 m/S 636 mmHg 69%
    20:00 +10°C° 0.1 mm 2 m/S 636 mmHg 71%
    21:00 +10°C° 0.1 mm 2 m/S 636 mmHg 74%
    22:00 +9°C° 0 mm 2 m/S 636 mmHg 76%
    23:00 +9°C° 0 mm 2 m/S 636 mmHg 78%

    24 Oktober, Mittwoch

    Zeit Temperatur Niederschläge Wind Luftdruck Luftfeuchtigkeit
    00:00 +9°C° 0 mm 2 m/S 635 mmHg 79%
    01:00 +9°C° 0 mm 2 m/S 635 mmHg 80%
    02:00 +9°C° 0 mm 2 m/S 635 mmHg 81%
    03:00 +9°C° 0 mm 2 m/S 635 mmHg 82%
    04:00 +8°C° 0 mm 2 m/S 635 mmHg 82%
    05:00 +8°C° 0 mm 2 m/S 634 mmHg 83%
    06:00 +8°C° 0 mm 3 m/S 634 mmHg 83%
    07:00 +10°C° 0 mm 3 m/S 635 mmHg 76%
    08:00 +12°C° 0 mm 3 m/S 635 mmHg 69%
    09:00 +13°C° 0 mm 4 m/S 636 mmHg 61%
    10:00 +14°C° 0 mm 4 m/S 636 mmHg 57%
    11:00 +16°C° 0 mm 5 m/S 635 mmHg 53%
    12:00 +17°C° 0 mm 5 m/S 635 mmHg 49%
    13:00 +17°C° 0 mm 5 m/S 635 mmHg 48%
    14:00 +17°C° 0 mm 5 m/S 634 mmHg 48%
    15:00 +17°C° 0 mm 5 m/S 634 mmHg 47%
    16:00 +15°C° 0 mm 4 m/S 634 mmHg 53%
    17:00 +14°C° 0 mm 3 m/S 633 mmHg 58%
    18:00 +12°C° 0 mm 3 m/S 632 mmHg 64%
    19:00 +13°C° 0 mm 2 m/S 632 mmHg 65%
    20:00 +12°C° 0 mm 2 m/S 632 mmHg 66%
    21:00 +12°C° 0 mm 2 m/S 632 mmHg 67%
    22:00 +10°C° 0 mm 2 m/S 632 mmHg 68%
    23:00 +10°C° 0 mm 2 m/S 632 mmHg 69%
    Mehr zeigen